[Iaude] MPEC M16: 2024 LE6 [a=1.88,e=0.44,i=25.7,H=20.7]
    mpec at cfa.harvard.edu 
    mpec at cfa.harvard.edu
       
    Tue Jun 18 07:28:29 EDT 2024
    
    
  
M.P.E.C. 2024-M16                                 Issued 2024 June 18, 11:27 UT
     The Minor Planet Electronic Circulars contain information on unusual
         minor planets, routine data on comets and natural satellites,
         and occasional editorial announcements.  They are published
    on behalf of Division F of the International Astronomical Union by the
          Minor Planet Center, Smithsonian Astrophysical Observatory,
                          Cambridge, MA 02138, U.S.A.
			  
             Prepared using the Tamkin Foundation Computer Network
                              MPC at CFA.HARVARD.EDU
            URL https://www.minorplanetcenter.net/    ISSN 1523-6714
                                    2024 LE6                                    
Observations:
     K24L06E  C2024 06 07.39676 21 18 17.41 -14 01 47.3          22.8 GVEM016V00
     K24L06E  C2024 06 07.40237 21 18 17.83 -14 01 33.1          22.0 GVEM016V00
     K24L06E  C2024 06 07.41360 21 18 18.71 -14 01 04.3          21.9 GVEM016V00
     K24L06E* C2024 06 15.55219721 28 57.848-07 21 55.58         21.49wXEM016F52
     K24L06E  C2024 06 15.56484821 28 58.706-07 21 13.55         21.74wXEM016F52
     K24L06E  C2024 06 15.57752221 28 59.573-07 20 31.65         21.73wXEM016F52
     K24L06E DC2024 06 16.37132 21 29 58.59 -06 36 13.9          21.3 GVEM016695
     K24L06E DC2024 06 16.37304 21 29 58.70 -06 36 08.2          21.5 GVEM016695
     K24L06E DC2024 06 16.37476 21 29 58.83 -06 36 02.5          21.5 GVEM016695
     K24L06E 1C2024 06 16.53355421 30 10.327-06 26 59.98         21.42GVEM016T12
     K24L06E 1C2024 06 16.53537421 30 10.446-06 26 53.96         21.68GVEM016T12
     K24L06E  C2024 06 16.55108421 30 11.513-06 26 00.68         21.53GVEM016F52
     K24L06E KC2024 06 17.34072121 31 09.05 -05 40 42.7          21.1 GVEM016H21
     K24L06E KC2024 06 17.34214421 31 09.13 -05 40 37.6          21.3 GVEM016H21
     K24L06E KC2024 06 17.34498921 31 09.31 -05 40 27.6          21.1 GVEM016H21
     K24L06E KC2024 06 18.34320 21 32 21.45 -04 41 33.0          21.0 RVEM016291
     K24L06E KC2024 06 18.35083 21 32 22.00 -04 41 06.0          20.8 RVEM016291
     K24L06E KC2024 06 18.35850 21 32 22.48 -04 40 38.2                VEM016291
Observer details:
291 LPL/Spacewatch II.  Observer T. H. Bressi.  1.8-m f/2.7 reflector + CCD.
695 Kitt Peak.  Observer M. J. Brucker.  2.3-m f/9 reflector + CCD.
F52 Pan-STARRS 2, Haleakala.  Observers J. Herman, T. Lowe, P. Minguez, A.
    Schultz, I. Smith.  Measurers K. Chambers, T. de Boer, J. Fairlamb, H.
    Gao, M. Huber, C.-C. Lin, E. Magnier, Y. Ramanjooloo, R. Wainscoat, R.
    Weryk.  1.8-m Ritchey-Chretien + CCD.
H21 Astronomical Research Observatory, Westfield.  Observer R. Holmes.
    Measurers T. Linder, R. Holmes, L. Horn.  0.81-m f/4.0 astrograph + CCD.
T12 University of Hawaii 88-inch telescope, Maunakea.  Observers J. Fairlamb,
    L. Benavitz, K. Toguchi-Tani.  Measurers R. Weryk, J. Fairlamb, Y.
    Ramanjooloo, R. Wainscoat.  2.24-m f/10.1 reflector + CCD.
V00 Kitt Peak-Bok.  Observer V. F. Carvajal.  Measurers B. Gray, D. Rankin, F.
    C. Shelly.  2.25-m reflector + mosaic CCD.
Orbital elements:
2024 LE6                                                 Earth MOID = 0.3106 AU
Epoch 2024 Mar. 31.0 TT = JDT 2460400.5                 Veres                   
M 297.30437              (2000.0)            P               Q                  
n   0.38176502     Peri.   84.15753     +0.90204197     -0.05218877             
a   1.8819379      Node   278.26431     -0.14549956     +0.89780718             
e   0.4350944      Incl.   25.65670     +0.40638671     +0.43728549             
P   2.58           H   20.76          G   0.15           U   8                  
Residuals in seconds of arc
240607 V00 (0.3+  0.5+)   240616 695  0.1-  0.1+    240617 H21  0.2-  0.2-
240607 V00  0.0   0.2+    240616 695  0.2-  0.0     240617 H21  0.4-  0.1-
240607 V00  0.0   0.2-    240616 695  0.0   0.1-    240617 H21  0.6-  0.0
240615 F52  0.1+  0.0     240616 T12  0.0   0.1+    240618 291  0.0   0.3+
240615 F52  0.0   0.1+    240616 T12  0.0   0.1-    240618 291  0.5+  0.0
240615 F52  0.0   0.1+    240616 F52  0.0   0.1-    240618 291  0.1+  0.2+
Ephemeris:
2024 LE6                 a,e,i = 1.88, 0.44, 26                  q = 1.0631
Date    TT    R. A. (2000) Decl.     Delta      r    Elong.  Phase     V
2024 05 19    20 48 25.9 -24 46 57   0.8894  1.5610   110.2    37.5    23.0
...
2024 06 03    21 12 02.7 -17 00 35   0.6965  1.4702   117.3    37.8    22.3
...
2024 06 11    21 23 08.5 -11 16 50   0.6053  1.4221   120.6    37.9    22.0
...
2024 06 17    21 30 44.0 -06 00 16   0.5440  1.3865   122.5    38.2    21.7
2024 06 18    21 31 56.2 -05 01 53   0.5345  1.3806   122.8    38.2    21.6
2024 06 19    21 33 07.4 -04 01 46   0.5251  1.3748   123.0    38.3    21.6
...
2024 06 25    21 39 52.3 +02 36 43   0.4737  1.3399   123.9    39.0    21.3
...
2024 07 03    21 47 51.1 +13 12 39   0.4194  1.2948   123.2    41.1    21.0
...
2024 07 18    21 59 45.5 +37 03 21   0.3694  1.2161   114.4    49.6    20.9
M. P. C. Staff               (C) Copyright 2024 MPC           M.P.E.C. 2024-M16
    
    
More information about the Iaude
mailing list